This is the latest recevied weather packets stored in our database for station/object N3SBK. If no packets are shown the sender has not sent any weather packets the latest 10 day(s).
| Time | Temp. | Humidity | Pressure | Rain* | Wind** | Luminosity | Snow |
|---|---|---|---|---|---|---|---|
| 1787573935 | 13.89° C | 98% | 1007.7 hPa | 0 mm | - | 29 W/m² | - |
| 1787573635 | 13.33° C | 98% | 1007.7 hPa | 0 mm | - | 29 W/m² | - |
| 1787573331 | 13.33° C | 98% | 1007.7 hPa | 0 mm | - | 20 W/m² | - |
| 1787573027 | 13.33° C | 98% | 1007.4 hPa | 0 mm | - | 19 W/m² | - |
| 1787572723 | 13.33° C | 98% | 1007.4 hPa | 0 mm | - | 26 W/m² | - |
| 1787572418 | 13.33° C | 98% | 1007.5 hPa | 0 mm | - | 25 W/m² | - |
| 1787572113 | 13.33° C | 98% | 1007.4 hPa | 0 mm | - | 23 W/m² | - |
| 1787571812 | 13.33° C | 98% | 1007.5 hPa | 0 mm | - | 27 W/m² | - |
| 1787571507 | 13.33° C | 98% | 1007.3 hPa | 0 mm | - | 25 W/m² | - |
| 1787571206 | 13.33° C | 98% | 1007.4 hPa | 0 mm | - | 20 W/m² | - |
| 1787570903 | 12.78° C | 98% | 1007.1 hPa | 0 mm | - | 15 W/m² | - |
| 1787570598 | 12.78° C | 98% | 1007.1 hPa | 0 mm | - | 12 W/m² | - |
| 1787570294 | 12.78° C | 98% | 1007.2 hPa | 0 mm | - | 13 W/m² | - |
| 1787569990 | 12.22° C | 98% | 1007 hPa | 0 mm | - | 11 W/m² | - |
| 1787569686 | 12.22° C | 98% | 1007.1 hPa | 0 mm | - | 10 W/m² | - |
| 1787569381 | 12.22° C | 98% | 1007.2 hPa | 0 mm | - | 8 W/m² | - |
| 1787569081 | 12.22° C | 98% | 1007.1 hPa | 0 mm | - | 7 W/m² | - |
| 1787568776 | 12.22° C | 98% | 1007.1 hPa | 0 mm | - | 4 W/m² | - |
| 1787568472 | 12.22° C | 98% | 1006.8 hPa | 0 mm | - | 4 W/m² | - |
| 1787568168 | 12.22° C | 98% | 1006.9 hPa | 0 mm | - | 3 W/m² | - |
| 1787567863 | 12.22° C | 98% | 1006.7 hPa | 0 mm | - | 1 W/m² | - |
| 1787567558 | 12.22° C | 98% | 1006.7 hPa | 0 mm | - | 1 W/m² | - |
| 1787567256 | 12.22° C | 98% | 1006.7 hPa | 0 mm | - | 0 W/m² | - |
| 1787566955 | 12.22° C | 98% | 1006.8 hPa | 0 mm | - | 0 W/m² | - |
| 1787566651 | 12.22° C | 98% | 1006.7 hPa | 0 mm | - | 0 W/m² | - |
* Rain latest hour (hover to see other rain measurements)
** Current wind speed in m/s (hover to see current wind gust speed)